EW1440 Weather Reports


Display with metric or nautical units.
time (UTC)temp
F
wind
direction
speed
MPH
gust
MPH
rain 1hr
in
rain 24hr
in
rain mn
in
humidity
%
barometer
mb
20260904204033 93 91 4.0 15.0 0.00 0.00 0.00 51 1013.0
20260904203533 93 115 9.0 17.0 0.00 0.00 0.00 51 1013.2
20260904203101 93 139 6.0 17.0 0.00 0.00 0.00 51 1013.1
20260904202533 93 108 6.0 17.0 0.00 0.00 0.00 52 1013.3
20260904202032 92 161 9.0 16.0 0.00 0.00 0.00 53 1013.2
20260904201559 91 70 7.0 12.0 0.00 0.00 0.00 55 1013.2
20260904201033 91 103 7.0 12.0 0.00 0.00 0.00 54 1013.3
20260904200533 91 126 6.0 12.0 0.00 0.00 0.00 54 1013.3
20260904200110 91 101 6.0 11.0 0.00 0.00 0.00 54 1013.4
20260904195538 91 78 7.0 13.0 0.00 0.00 0.00 54 1013.5
20260904195036 92 143 7.0 13.0 0.00 0.00 0.00 53 1013.5
20260904194555 92 75 9.0 13.0 0.00 0.00 0.00 55 1013.5
20260904194033 91 93 6.0 13.0 0.00 0.00 0.00 54 1013.5
20260904193533 92 162 7.0 13.0 0.00 0.00 0.00 54 1013.7
20260904193100 92 101 5.0 12.0 0.00 0.00 0.00 52 1013.7
20260904192534 92 53 5.0 12.0 0.00 0.00 0.00 54 1013.7
20260904192033 92 72 5.0 19.0 0.00 0.00 0.00 55 1013.8
20260904191558 92 80 8.0 21.0 0.00 0.00 0.00 54 1013.9
20260904191033 92 118 5.0 21.0 0.00 0.00 0.00 53 1013.8
20260904190532 93 83 5.0 15.0 0.00 0.00 0.00 53 1013.9
20260904190058 93 156 3.0 14.0 0.00 0.00 0.00 52 1013.8
20260904185535 93 139 7.0 15.0 0.00 0.00 0.00 52 1013.9
20260904185034 92 190 3.0 15.0 0.00 0.00 0.00 53 1013.9
20260904184604 93 152 5.0 18.0 0.00 0.00 0.00 53 1013.9
20260904184033 93 88 7.0 18.0 0.00 0.00 0.00 54 1014.0
20260904183536 92 130 4.0 14.0 0.00 0.00 0.00 54 1013.9
20260904183057 92 135 4.0 15.0 0.00 0.00 0.00 55 1014.1
20260904182544 92 0 4.0 15.0 0.00 0.00 0.00 55 1014.1
20260904182037 92 166 7.0 15.0 0.00 0.00 0.00 54 1014.2
20260904181555 92 129 5.0 13.0 0.00 0.00 0.00 54 1014.1
20260904181035 92 135 5.0 13.0 0.00 0.00 0.00 55 1014.3
20260904180537 92 155 4.0 14.0 0.00 0.00 0.00 55 1014.4
20260904180105 92 170 6.0 14.0 0.00 0.00 0.00 54 1014.5
20260904175534 91 95 5.0 13.0 0.00 0.00 0.00 58 1014.7
20260904175034 91 182 3.0 16.0 0.00 0.00 0.00 59 1014.6
20260904174557 92 141 7.0 16.0 0.00 0.00 0.00 56 1014.8
20260904174034 91 122 6.0 16.0 0.00 0.00 0.00 58 1014.8
20260904173533 91 189 6.0 19.0 0.00 0.00 0.00 58 1014.9
20260904173104 91 116 8.0 19.0 0.00 0.00 0.00 59 1015.0
20260904172536 90 164 6.0 18.0 0.00 0.00 0.00 59 1014.9
20260904172033 91 160 9.0 18.0 0.00 0.00 0.00 58 1014.9
20260904171555 92 70 7.0 14.0 0.00 0.00 0.00 56 1015.1
20260904171034 92 128 7.0 14.0 0.00 0.00 0.00 58 1015.1
20260904170536 90 128 9.0 15.0 0.00 0.00 0.00 59 1015.1
20260904170100 90 146 8.0 15.0 0.00 0.00 0.00 61 1015.1
20260904165538 90 124 7.0 14.0 0.00 0.00 0.00 63 1015.1
20260904165034 89 114 7.0 14.0 0.00 0.00 0.00 61 1015.2
20260904164558 88 149 5.0 11.0 0.00 0.00 0.00 61 1015.3
20260904164033 88 114 5.0 12.0 0.00 0.00 0.00 65 1015.3
20260904163536 87 128 4.0 13.0 0.00 0.00 0.00 65 1015.3
20260904163057 89 153 8.0 15.0 0.00 0.00 0.00 62 1015.5
20260904162533 88 136 8.0 15.0 0.00 0.00 0.00 63 1015.4
20260904162034 89 143 7.0 14.0 0.00 0.00 0.00 62 1015.4
20260904161601 89 174 8.0 14.0 0.00 0.00 0.00 65 1015.4
20260904161037 88 184 7.0 14.0 0.00 0.00 0.00 67 1015.3
20260904160534 87 180 8.0 14.0 0.00 0.00 0.00 67 1015.2
20260904160105 86 182 3.0 14.0 0.00 0.00 0.00 69 1015.1
20260904155533 86 133 3.0 15.0 0.00 0.00 0.00 71 1015.2
20260904155033 86 162 8.0 15.0 0.00 0.00 0.00 71 1015.2
20260904154611 84 106 4.0 11.0 0.00 0.00 0.00 73 1015.3
20260904154034 84 132 6.0 11.0 0.00 0.00 0.00 73 1015.2
20260904153535 86 140 5.0 10.0 0.00 0.00 0.00 72 1015.3
20260904153059 85 168 4.0 12.0 0.00 0.00 0.00 74 1015.1
20260904152536 85 170 7.0 12.0 0.00 0.00 0.00 74 1015.2
20260904152032 84 127 6.0 12.0 0.00 0.00 0.00 73 1015.1
20260904151554 85 137 5.0 12.0 0.00 0.00 0.00 73 1015.1
20260904151033 83 169 2.0 8.0 0.00 0.00 0.00 77 1015.1
20260904150533 83 162 4.0 16.0 0.00 0.00 0.00 76 1015.1
20260904150100 84 147 4.0 16.0 0.00 0.00 0.00 77 1015.1
20260904145533 83 164 7.0 16.0 0.00 0.00 0.00 78 1015.0
20260904145033 83 127 8.0 13.0 0.00 0.00 0.00 78 1015.1
20260904144558 83 188 5.0 14.0 0.00 0.00 0.00 78 1015.0
20260904144033 82 134 9.0 14.0 0.00 0.00 0.00 79 1015.1
20260904143532 82 182 7.0 13.0 0.00 0.00 0.00 80 1015.0
20260904143055 82 149 6.0 12.0 0.00 0.00 0.00 80 1015.1
20260904142535 82 131 6.0 13.0 0.00 0.00 0.00 82 1015.1
20260904142033 81 172 6.0 13.0 0.00 0.00 0.00 82 1015.2
20260904141605 81 139 7.0 11.0 0.00 0.00 0.00 82 1015.1
20260904141033 81 187 7.0 11.0 0.00 0.00 0.00 84 1015.1
20260904140536 80 158 7.0 11.0 0.00 0.00 0.00 86 1015.1
20260904140111 79 125 5.0 10.0 0.00 0.00 0.00 88 1015.1
20260904135537 79 151 4.0 9.0 0.00 0.00 0.00 88 1015.0
20260904135033 79 133 4.0 11.0 0.00 0.00 0.00 88 1015.0
20260904134613 79 124 4.0 11.0 0.00 0.00 0.00 88 1014.9
20260904134103 79 164 4.0 9.0 0.00 0.00 0.00 88 1014.9
20260904133533 79 109 5.0 9.0 0.00 0.00 0.00 88 1014.8
20260904133059 79 126 4.0 9.0 0.00 0.00 0.00 88 1014.8
20260904132537 79 104 5.0 9.0 0.00 0.00 0.00 88 1014.7
20260904132034 78 137 5.0 9.0 0.00 0.00 0.00 88 1014.6
20260904131559 78 126 4.0 9.0 0.00 0.00 0.00 88 1014.6
20260904131033 78 145 2.0 9.0 0.00 0.00 0.00 88 1014.6
20260904130533 78 152 4.0 9.0 0.00 0.00 0.00 88 1014.5
20260904130050 78 106 3.0 9.0 0.00 0.00 0.00 88 1014.3
20260904125537 78 122 4.0 9.0 0.00 0.00 0.00 88 1014.2
20260904125036 78 102 3.0 9.0 0.00 0.00 0.00 88 1014.1
20260904124608 78 147 3.0 8.0 0.00 0.00 0.00 88 1014.1
20260904124034 78 152 4.0 9.0 0.00 0.00 0.00 88 1014.1
20260904123533 78 113 4.0 9.0 0.00 0.00 0.00 88 1014.0
20260904123100 78 85 5.0 9.0 0.00 0.00 0.00 88 1013.9
20260904122532 78 106 2.0 8.0 0.00 0.00 0.00 88 1013.9
20260904122037 78 121 3.0 8.0 0.00 0.00 0.00 88 1013.9
20260904121558 78 109 2.0 7.0 0.00 0.00 0.00 87 1013.9
20260904121033 78 122 3.0 8.0 0.00 0.00 0.00 87 1013.9
20260904120536 78 138 3.0 8.0 0.00 0.00 0.00 87 1013.8
20260904115537 78 133 2.0 5.0 0.00 0.00 0.00 86 1013.7
20260904115033 78 123 1.0 5.0 0.00 0.00 0.00 86 1013.6
20260904114602 78 127 2.0 5.0 0.00 0.00 0.00 86 1013.6
20260904114034 78 146 3.0 6.0 0.00 0.00 0.00 85 1013.6
20260904113532 78 124 2.0 6.0 0.00 0.00 0.00 85 1013.5
20260904113057 78 120 1.0 3.0 0.00 0.00 0.00 85 1013.5
20260904112532 78 120 1.0 3.0 0.00 0.00 0.00 85 1013.5
20260904112037 78 0 1.0 2.0 0.00 0.00 0.00 85 1013.5
20260904111559 78 120 0.0 3.0 0.00 0.00 0.00 84 1013.5
20260904111032 78 120 0.0 3.0 0.00 0.00 0.00 84 1013.4
20260904110533 78 120 0.0 2.0 0.00 0.00 0.00 84 1013.4
20260904110058 78 0 0.0 3.0 0.00 0.00 0.00 84 1013.3
20260904105533 78 120 0.0 3.0 0.00 0.00 0.00 84 1013.4
20260904105033 79 120 1.0 3.0 0.00 0.00 0.00 84 1013.3
20260904104603 79 120 1.0 3.0 0.00 0.00 0.00 84 1013.3
20260904104033 79 120 1.0 3.0 0.00 0.00 0.00 84 1013.2
20260904103534 79 0 1.0 4.0 0.00 0.00 0.00 84 1013.2
20260904103058 79 130 1.0 4.0 0.00 0.00 0.00 84 1013.2
20260904102536 79 0 1.0 7.0 0.00 0.00 0.00 84 1013.3
20260904102034 79 0 1.0 7.0 0.00 0.00 0.00 84 1013.2
20260904101556 79 125 3.0 7.0 0.00 0.00 0.00 84 1013.4
20260904101035 79 155 4.0 7.0 0.00 0.00 0.00 84 1013.4
20260904100533 79 187 3.0 7.0 0.00 0.00 0.00 84 1013.4
20260904095532 79 117 2.0 12.0 0.00 0.00 0.00 84 1013.2
20260904095033 79 123 4.0 12.0 0.00 0.00 0.00 84 1013.2
20260904094611 79 166 3.0 10.0 0.00 0.00 0.00 84 1013.2
20260904094033 79 145 4.0 10.0 0.00 0.00 0.00 84 1013.3
20260904093534 79 163 5.0 10.0 0.00 0.00 0.00 83 1013.2
20260904093100 79 151 4.0 9.0 0.00 0.00 0.00 83 1013.3
20260904092533 79 151 3.0 7.0 0.00 0.00 0.00 83 1013.3
20260904092033 79 147 4.0 10.0 0.00 0.00 0.00 83 1013.2
20260904091552 79 157 2.0 10.0 0.00 0.00 0.00 83 1013.4
20260904091034 79 156 4.0 10.0 0.00 0.00 0.00 83 1013.3
20260904090532 79 127 3.0 9.0 0.00 0.00 0.00 83 1013.2
20260904090107 79 145 5.0 9.0 0.00 0.00 0.00 83 1013.2
20260904085533 79 191 4.0 10.0 0.00 0.00 0.00 83 1013.2
20260904085034 79 135 4.0 10.0 0.00 0.00 0.00 83 1013.3
20260904084600 79 162 6.0 10.0 0.00 0.00 0.00 83 1013.3
20260904084033 79 156 4.0 10.0 0.00 0.00 0.00 83 1013.4
20260904083535 79 169 3.0 15.0 0.00 0.00 0.00 83 1013.4
20260904083134 79 148 6.0 15.0 0.00 0.00 0.00 83 1013.3
20260904082535 79 136 6.0 15.0 0.00 0.00 0.00 83 1013.3
20260904082033 79 141 3.0 9.0 0.00 0.00 0.00 83 1013.3
20260904081608 79 164 3.0 9.0 0.00 0.00 0.00 83 1013.4
20260904081034 79 125 5.0 9.0 0.00 0.00 0.00 83 1013.4
20260904080533 79 162 4.0 7.0 0.00 0.00 0.00 83 1013.5
20260904080057 79 102 2.0 9.0 0.00 0.00 0.00 83 1013.5
20260904075533 79 135 4.0 9.0 0.00 0.00 0.00 82 1013.5
20260904075034 79 116 3.0 8.0 0.00 0.00 0.00 82 1013.6
20260904074554 79 128 1.0 7.0 0.00 0.00 0.00 82 1013.6
20260904074033 79 141 1.0 7.0 0.00 0.00 0.00 82 1013.7
20260904073533 79 141 2.0 8.0 0.00 0.00 0.00 81 1013.6
20260904073057 79 153 2.0 8.0 0.00 0.00 0.00 81 1013.7
20260904072532 79 128 4.0 9.0 0.00 0.00 0.00 81 1013.7
20260904072035 79 135 3.0 9.0 0.00 0.00 0.00 81 1013.6
20260904071620 79 189 5.0 9.0 0.00 0.00 0.00 80 1013.7
20260904071035 80 145 3.0 10.0 0.00 0.00 0.00 80 1013.8
20260904070533 80 149 3.0 10.0 0.00 0.00 0.00 80 1013.7
20260904070115 80 164 4.0 11.0 0.00 0.00 0.00 80 1013.7
20260904065533 80 155 3.0 13.0 0.00 0.00 0.00 79 1013.7
20260904065034 80 137 5.0 13.0 0.00 0.00 0.00 79 1013.7
20260904064555 80 143 8.0 16.0 0.00 0.00 0.00 79 1013.9
20260904064033 80 162 8.0 16.0 0.00 0.00 0.00 79 1013.8
20260904063533 80 155 9.0 15.0 0.00 0.00 0.00 79 1013.7
20260904063100 80 139 6.0 15.0 0.00 0.00 0.00 78 1013.7
20260904062534 80 147 8.0 15.0 0.00 0.00 0.00 78 1013.9
20260904062032 80 139 8.0 12.0 0.00 0.00 0.00 77 1013.8
20260904061557 80 153 8.0 12.0 0.00 0.00 0.00 77 1013.9
20260904061032 81 149 5.0 11.0 0.00 0.00 0.00 76 1014.0
20260904060536 81 143 5.0 11.0 0.00 0.00 0.00 76 1014.1
20260904060057 81 143 6.0 11.0 0.00 0.00 0.00 75 1014.2
20260904055533 81 110 4.0 11.0 0.00 0.00 0.00 75 1014.2
20260904055032 81 134 5.0 15.0 0.00 0.00 0.00 75 1014.3
20260904054601 81 135 7.0 15.0 0.00 0.00 0.00 75 1014.1
20260904054035 81 145 6.0 16.0 0.00 0.00 0.00 74 1014.1
20260904053533 81 119 8.0 17.0 0.00 0.00 0.00 74 1014.1
20260904053102 81 129 10.0 20.0 0.00 0.00 0.00 73 1014.0
20260904052533 82 126 7.0 22.0 0.00 0.00 0.00 73 1014.1
20260904052033 82 126 11.0 22.0 0.00 0.00 0.00 73 1013.9
20260904051559 82 135 10.0 19.0 0.00 0.00 0.00 73 1013.9
20260904051032 82 147 7.0 15.0 0.00 0.00 0.00 73 1013.8
20260904050533 82 164 6.0 15.0 0.00 0.00 0.00 73 1013.7
20260904050057 83 157 7.0 18.0 0.00 0.00 0.00 72 1013.7
20260904045533 83 130 8.0 18.0 0.00 0.00 0.00 72 1013.6
20260904045033 83 158 10.0 18.0 0.00 0.00 0.00 71 1013.5
20260904044600 83 146 9.0 19.0 0.00 0.00 0.00 70 1013.5
20260904044032 83 168 9.0 19.0 0.00 0.00 0.00 69 1013.5
20260904043533 83 178 8.0 18.0 0.00 0.00 0.00 69 1013.6
20260904043102 83 148 10.0 18.0 0.00 0.00 0.00 68 1013.5
20260904042536 84 151 9.0 19.0 0.00 0.00 0.00 68 1013.4
20260904042031 84 157 11.0 22.0 0.00 0.00 0.00 67 1013.4
20260904041601 84 167 10.0 22.0 0.00 0.00 0.00 66 1013.2
20260904041034 84 174 12.0 25.0 0.00 0.00 0.00 65 1013.2
20260904040532 85 164 11.0 25.0 0.00 0.00 0.00 64 1013.3
20260904040109 85 145 11.0 24.0 0.00 0.00 0.00 63 1013.4
20260904035535 85 171 14.0 24.0 0.00 0.00 0.00 62 1013.4
20260904035034 85 162 9.0 21.0 0.00 0.00 0.00 62 1013.3
20260904034556 85 160 12.0 24.0 0.00 0.00 0.00 61 1013.4
20260904034034 86 122 11.0 24.0 0.00 0.00 0.00 60 1013.3
20260904033534 86 120 11.0 25.0 0.00 0.00 0.00 60 1013.2
20260904033053 86 127 14.0 25.0 0.00 0.00 0.00 59 1013.2
20260904032533 86 121 13.0 23.0 0.00 0.00 0.00 58 1013.2
20260904032032 87 137 9.0 18.0 0.00 0.00 0.00 58 1013.0
20260904031609 87 134 12.0 20.0 0.00 0.00 0.00 57 1012.9
20260904031032 87 151 10.0 22.0 0.00 0.00 0.00 57 1012.8
20260904030534 87 141 10.0 23.0 0.00 0.00 0.00 56 1012.8
20260904030057 87 99 11.0 23.0 0.00 0.00 0.00 56 1012.6
20260904025533 87 124 10.0 21.0 0.00 0.00 0.00 56 1012.5
20260904025033 88 143 11.0 20.0 0.00 0.00 0.00 56 1012.4
20260904024559 88 114 12.0 23.0 0.00 0.00 0.00 56 1012.2
20260904024034 88 147 9.0 23.0 0.00 0.00 0.00 56 1012.1
20260904023536 88 165 10.0 21.0 0.00 0.00 0.00 56 1011.9
20260904023051 88 127 9.0 21.0 0.00 0.00 0.00 56 1011.8
20260904022533 88 168 12.0 18.0 0.00 0.00 0.00 56 1011.8
20260904022034 88 162 9.0 18.0 0.00 0.00 0.00 56 1011.7
20260904021557 88 85 9.0 17.0 0.00 0.00 0.00 55 1011.5
20260904021033 89 157 8.0 17.0 0.00 0.00 0.00 55 1011.4
20260904020533 89 106 9.0 16.0 0.00 0.00 0.00 54 1011.4
20260904020058 89 121 10.0 17.0 0.00 0.00 0.00 53 1011.4
20260904015533 90 126 6.0 17.0 0.00 0.00 0.00 52 1011.3
20260904015034 90 88 9.0 18.0 0.00 0.00 0.00 52 1011.3
20260904014557 91 138 7.0 19.0 0.00 0.00 0.00 51 1011.3
20260904014032 91 82 9.0 19.0 0.00 0.00 0.00 50 1011.2
20260904013535 92 126 11.0 26.0 0.00 0.00 0.00 49 1011.1
20260904013058 92 70 11.0 26.0 0.00 0.00 0.00 48 1011.1
20260904012533 93 109 15.0 25.0 0.00 0.00 0.00 47 1011.0
20260904012033 93 108 13.0 25.0 0.00 0.00 0.00 45 1010.9
20260904011559 94 103 2.0 7.0 0.00 0.00 0.00 41 1010.7
20260904011033 94 118 2.0 7.0 0.00 0.00 0.00 40 1010.4
20260904010533 94 124 3.0 10.0 0.00 0.00 0.00 40 1010.3
20260904010054 95 104 5.0 10.0 0.00 0.00 0.00 39 1010.3
20260904005533 95 139 5.0 10.0 0.00 0.00 0.00 39 1010.3
20260904005034 95 120 5.0 11.0 0.00 0.00 0.00 38 1010.4
20260904004605 95 114 5.0 12.0 0.00 0.00 0.00 38 1010.3
20260904004034 96 112 7.0 12.0 0.00 0.00 0.00 38 1010.1
20260904003532 96 100 5.0 11.0 0.00 0.00 0.00 37 1010.1
20260904003059 96 82 5.0 16.0 0.00 0.00 0.00 37 1010.0
20260904002535 96 127 9.0 16.0 0.00 0.00 0.00 37 1010.0
20260904002035 96 130 6.0 16.0 0.00 0.00 0.00 37 1010.0
20260904001555 96 117 9.0 16.0 0.00 0.00 0.00 37 1010.1
20260904001033 97 141 7.0 15.0 0.00 0.00 0.00 37 1010.1
20260904000533 97 118 5.0 15.0 0.00 0.00 0.00 37 1010.0
20260904000106 97 97 8.0 16.0 0.00 0.00 0.00 37 1010.0
20260903235536 97 114 5.0 16.0 0.00 0.00 0.00 37 1010.0
20260903235034 98 128 6.0 17.0 0.00 0.00 0.00 37 1009.9
20260903234600 98 144 8.0 17.0 0.00 0.00 0.00 37 1009.9
20260903234033 98 107 6.0 14.0 0.00 0.00 0.00 36 1009.9
20260903233538 98 112 7.0 17.0 0.00 0.00 0.00 37 1009.9
20260903233102 99 154 8.0 17.0 0.00 0.00 0.00 36 1009.8
20260903232533 99 149 9.0 16.0 0.00 0.00 0.00 36 1009.8
20260903232033 99 135 4.0 16.0 0.00 0.00 0.00 36 1009.8
20260903231558 99 122 7.0 16.0 0.00 0.00 0.00 36 1009.9
20260903231032 99 123 10.0 18.0 0.00 0.00 0.00 35 1009.9
20260903230532 99 131 7.0 18.0 0.00 0.00 0.00 34 1009.9
20260903230100 99 94 9.0 17.0 0.00 0.00 0.00 35 1009.8
20260903225536 99 122 9.0 17.0 0.00 0.00 0.00 35 1009.8
20260903225033 100 97 6.0 16.0 0.00 0.00 0.00 35 1009.8
20260903224556 100 135 7.0 17.0 0.00 0.00 0.00 34 1009.7
20260903224033 100 118 7.0 17.0 0.00 0.00 0.00 34 1009.7
20260903223538 100 107 6.0 14.0 0.00 0.00 0.00 33 1009.7
20260903223101 101 166 6.0 14.0 0.00 0.00 0.00 35 1010.0
20260903222533 101 116 6.0 14.0 0.00 0.00 0.00 34 1010.0
20260903222035 102 112 8.0 15.0 0.00 0.00 0.00 31 1010.0
20260903221557 103 126 7.0 15.0 0.00 0.00 0.00 31 1010.0
20260903221032 104 140 6.0 15.0 0.00 0.00 0.00 32 1010.1
20260903220532 104 69 9.0 16.0 0.00 0.00 0.00 31 1010.1
20260903220056 104 110 7.0 16.0 0.00 0.00 0.00 31 1010.1
20260903215533 105 105 8.0 15.0 0.00 0.00 0.00 31 1010.2
20260903215036 105 95 4.0 12.0 0.00 0.00 0.00 33 1010.1
20260903214617 105 194 5.0 15.0 0.00 0.00 0.00 31 1010.1
20260903214034 106 110 5.0 15.0 0.00 0.00 0.00 31 1010.1
20260903213536 106 160 6.0 13.0 0.00 0.00 0.00 32 1010.2
20260903213059 106 123 5.0 14.0 0.00 0.00 0.00 32 1010.4
20260903212535 106 93 7.0 14.0 0.00 0.00 0.00 33 1010.4
20260903212034 106 99 4.0 12.0 0.00 0.00 0.00 32 1010.4
20260903211606 106 150 4.0 15.0 0.00 0.00 0.00 31 1010.6
20260903211036 106 143 6.0 15.0 0.00 0.00 0.00 32 1010.7
20260903210538 105 62 9.0 15.0 0.00 0.00 0.00 34 1010.6
20260903210056 105 137 5.0 20.0 0.00 0.00 0.00 32 1010.7
20260903205534 105 54 9.0 20.0 0.00 0.00 0.00 35 1010.6
20260903205034 105 103 9.0 17.0 0.00 0.00 0.00 35 1010.7
20260903204556 104 218 2.0 14.0 0.00 0.00 0.00 34 1010.8